Humidity-temperature Sensor

Selected Measurement Type: Air Temperature

 
Air Temperature [°C]     6 entries per hour
Showing data from 8/19/2016 (00:00:00 Z) to 8/18/2016 (00:01:00 Z)
Previous Next [ Day | 3-Days | 7-Days ]
First Last
Prev [ Day | 3-Days | 7-Days ] Next
First Last

Start Time:     :
End Time:     :     
Time (in GMT) :00 :50 :40 :30 :20 :10
Previous Next [ Day | 3-Days | 7-Days ]
First Last
Prev [ Day | 3-Days | 7-Days ] Next
First Last


123 => good data
MM => data is determined as missing
-- => data not received/configured
Back to Top Back to Top
8/19/2016 00:00 to 23:10 21.25 21.28 21.30 21.24 21.34 21.25
8/18/2016 23:00 to 22:10 21.24 21.24 21.29 21.32 21.32 21.29
8/18/2016 22:00 to 21:10 21.31 21.24 21.29 21.24 21.21 21.19
8/18/2016 21:00 to 20:10 21.16 21.21 21.14 21.11 21.16 21.16
8/18/2016 20:00 to 19:10 21.06 21.10 21.08 21.02 21.02 21.10
8/18/2016 19:00 to 18:10 21.05 21.00 20.99 20.90 20.94 20.87
8/18/2016 18:00 to 17:10 20.92 20.91 20.84 20.92 20.92 20.94
8/18/2016 17:00 to 16:10 20.95 20.86 20.90 20.93 20.89 20.91
8/18/2016 16:00 to 15:10 20.85 20.89 20.85 20.85 20.89 20.88
8/18/2016 15:00 to 14:10 20.77 20.85 20.82 20.77 20.72 20.62
8/18/2016 14:00 to 13:10 20.66 20.64 20.60 20.62 20.56 20.49
8/18/2016 13:00 to 12:10 20.40 20.31 20.28 20.25 20.14 20.23
8/18/2016 12:00 to 11:10 20.16 20.17 20.19 20.29 20.11 20.17
8/18/2016 11:00 to 10:10 20.01 20.08 20.14 20.00 20.02 19.93
8/18/2016 10:00 to 9:10 19.88 19.95 19.99 20.07 20.16 20.18
8/18/2016 09:00 to 8:10 20.20 20.22 20.25 20.23 20.30 20.29
8/18/2016 08:00 to 7:10 20.29 20.24 20.29 20.35 20.35 20.33
8/18/2016 07:00 to 6:10 20.37 20.34 20.37 20.42 20.38 20.41
8/18/2016 06:00 to 5:10 20.38 20.46 20.37 20.48 20.43 20.48
8/18/2016 05:00 to 4:10 20.38 20.40 20.32 20.31 20.39 20.33
8/18/2016 04:00 to 3:10 20.26 20.25 20.27 20.23 20.26 20.27
8/18/2016 03:00 to 2:10 20.29 20.26 20.26 20.20 20.27 20.24
8/18/2016 02:00 to 1:10 20.21 20.18 20.15 20.19 20.23 20.19
8/18/2016 01:00 to 0:10 20.19 20.16 20.14 20.16 20.21 20.16